Your browser is no longer supported. Please, upgrade your browser.
Filter
Ticker Owner Relationship Date Transaction Cost #Shares Value ($) #Shares Total SEC Form 4
SNFCAWilbur Norman GDirectorJul 13Sale5.265002,6301,374Jul 18 12:09 PM
LKQQuinn John SEVP and Managing Dir., EuropeJul 17Sale33.518,019268,726256,995Jul 18 12:00 PM
VARKUO JOHN WSVP, Gen Counsel and SecretaryJul 16Sale115.281,327152,97430,086Jul 18 11:40 AM
PSMTPRICE ROBERT EDirectorJul 16Sale78.2410,000782,4021,713,357Jul 18 11:02 AM
EFSCGoodman Scott RichardPresidentJul 16Sale54.231,20065,07641,713Jul 18 10:57 AM
FDSHADLEY PHILIP AChairmanJul 13Sale202.5944,5449,024,133604,147Jul 18 09:44 AM
FDSHADLEY PHILIP AChairmanJul 12Sale205.4425,4565,229,803648,691Jul 18 09:44 AM
JBLUSt George Martin JEVP CommercialJul 16Sale19.393,00058,17031,867Jul 18 09:29 AM
NTLAFORMELA JEAN FRANCOISDirectorJul 16Sale31.176,686208,3970Jul 18 08:40 AM
AAWWFlynn William JPresident & CEOJul 16Sale70.255,000351,250116,958Jul 18 08:39 AM
NOWLUDDY FREDERIC BDirectorJul 16Sale189.9332,5006,172,592175,000Jul 17 09:43 PM
GDOTShifke Mark LChief Financial OfficerJul 16Sale78.0110,000780,075667,020Jul 17 08:30 PM
EXELMORRISSEY MICHAELPresident and CEOJul 16Sale21.1390,0001,901,700125,000Jul 17 08:19 PM
WATTJohnston CesarEVP, Engineering & OperationsJul 16Sale15.548,780136,484168,583Jul 17 07:59 PM
EQIXMeyers Charles JPresident, SSIJul 16Sale443.14280124,0793,836Jul 17 07:58 PM
EQIXCampbell Michael EarlChief Sales OfficerJul 16Sale443.14250110,7851,677Jul 17 07:58 PM
WATTSereda Brian JSenior Vice President & CFOJul 16Sale15.5410,540163,843119,662Jul 17 07:57 PM
ELLIAnderman SigmundDirectorJul 16Sale103.0915,0001,546,310128,906Jul 17 07:57 PM
SNAPSweet LaraVP, Chief Accounting OfficerJul 16Sale13.1810,268135,353620,358Jul 17 07:39 PM
SNAPStone Timothy RChief Financial OfficerJul 16Sale13.188,919117,5521,250,417Jul 17 07:32 PM
TFXSMITH BENSONDirectorJul 16Sale272.079,3312,538,64368,556Jul 17 07:30 PM
GWREConway CraigDirectorJul 16Sale95.2840038,1128,993Jul 17 07:17 PM
CONNMARTIN BOB LDirectorJul 13Sale37.746,000226,44457,265Jul 17 07:02 PM
AYXRUBIN KEVINChief Financial OfficerJul 16Sale42.038,500357,25538,208Jul 17 07:01 PM
ORCLSELIGMAN NAOMI ODirectorJul 16Sale48.0945,0002,164,26227,342Jul 17 06:55 PM
SPWHSeidler Kutsenda Management CoDirectorJul 17Sale5.3815,00080,7723,507,652Jul 17 06:42 PM
SPWHSeidler Kutsenda Management CoDirectorJul 16Sale5.2820,000105,5543,522,652Jul 17 06:42 PM
SPWHSeidler Kutsenda Management CoDirectorJul 13Sale5.2630,000157,9113,542,652Jul 17 06:42 PM
CDXSDorgan Byron LDirectorJul 16Sale15.4910,000154,880190,593Jul 17 06:37 PM
TRUEGunsagar NeerajEVP, Chief Marketing OfficerJul 17Sale11.531,98522,887202,629Jul 17 06:36 PM
VEEVMATEO ALANEVP Global SalesJul 17Sale81.3287671,23612,147Jul 17 06:35 PM
VRTXSachdev AmitEVP, CROJul 16Sale180.361,719310,04246,662Jul 17 06:30 PM
VRTXSachdev AmitEVP, CROJul 13Sale180.0012,0312,165,58046,662Jul 17 06:30 PM
INGNHuggenberger RaymondDirectorJul 16Sale194.5110,5932,060,4797,797Jul 17 06:24 PM
VRTXArbuckle Stuart AEVP\Chief Commercial OfficerJul 16Sale179.852,125382,18146,752Jul 17 06:23 PM
VRTXArbuckle Stuart AEVP\Chief Commercial OfficerJul 13Sale179.006,3751,141,12546,752Jul 17 06:23 PM
PFSIBotein MatthewDirectorJul 17Sale19.4110,000194,09525,893Jul 17 06:09 PM
BLFSRice MichaelPresident & CEOJul 16Sale19.9012,540249,546139,517Jul 17 06:08 PM
WRodrigues RomeroDirectorJul 16Sale118.6012614,94410,243Jul 17 06:08 PM
WFLEISHER MICHAEL DChief Financial OfficerJul 16Sale118.036,574775,90296,694Jul 17 06:07 PM
WMulliken John ChamplinChief Technology OfficerJul 16Sale118.841,379163,8808,235Jul 17 06:07 PM
WMacri EdmondChief Product/MarketingJul 17Sale120.3860072,228251,845Jul 17 06:06 PM
WMacri EdmondChief Product/MarketingJul 16Sale119.041,374163,5612,126Jul 17 06:06 PM
PFSIWalker David MChief Risk OfficerJul 17Sale19.365,00096,78830Jul 17 06:06 PM
PFSIWalker David MChief Risk OfficerJul 16Sale19.345,00096,69430Jul 17 06:06 PM
WOblak SteveChief Merchandising OfficerJul 16Sale118.781,378163,679114,433Jul 17 06:06 PM
WShah NirajChief Executive OfficerJul 17Sale124.072,900359,79369,151Jul 17 06:06 PM
WShah NirajChief Executive OfficerJul 16Sale120.5115,2421,836,77872,051Jul 17 06:06 PM
WSavarese JamesChief Operating OfficerJul 16Sale118.671,837217,997556,069Jul 17 06:05 PM
WConine StevenCo-FounderJul 17Sale124.082,900359,82669,153Jul 17 06:04 PM
WConine StevenCo-FounderJul 16Sale120.5215,2421,837,02972,053Jul 17 06:04 PM
MLHRWALKER BRIAN CCEOJul 13Sale38.7730,3621,177,2204,044Jul 17 06:03 PM
SRPTHowton David TSVP, General CounselJul 16Sale136.4650,0006,823,00034,871Jul 17 06:01 PM
CTRLCashen SusanSVP of MarketingJul 16Sale25.107,522188,8020Jul 17 05:56 PM
NATITRUCHARD JAMES JDirectorJul 16Sale43.7917,500766,3256,387,537Jul 17 05:49 PM
ORCLGARCIA-MOLINA HECTORDirectorJul 16Sale48.253,750180,93026,094Jul 17 05:49 PM
GISErickson Peter CChief Innovation OfficerJul 16Sale44.1452,8542,333,12476,721Jul 17 05:46 PM
NFLXWELLS DAVID BCFOJul 16Sale399.011,000399,0100Jul 17 05:36 PM
MNTAKWON YOUNGSVP, Corporate DevelopmentJul 13Sale27.3949,5001,355,985114,624Jul 17 05:30 PM
ACORSCOPIA CAPITAL MANAGEMENT LP10% OwnerJul 17Sale30.058,199246,3547,336,531Jul 17 05:22 PM
ACORSCOPIA CAPITAL MANAGEMENT LP10% OwnerJul 16Sale30.0425,000750,9787,344,730Jul 17 05:22 PM
ACORSCOPIA CAPITAL MANAGEMENT LP10% OwnerJul 13Sale30.001003,0007,369,730Jul 17 05:22 PM
SNAPLASKY MITCHELLDirectorJul 17Sale13.3325,000333,1551,994,104Jul 17 05:20 PM
WBABarra OrnellaCo-Chief Operating OfficerJul 16Sale63.921,697,438108,500,2370Jul 17 05:12 PM
MEETWhitt JasonDirectorJul 13Sale4.0218,50074,45143,882Jul 17 05:12 PM
SYYTILGHMAN RICHARD GDirectorJul 16Sale70.615,000353,05071,137Jul 17 05:04 PM
BGNEOYLER JOHNChief Executive OfficerJul 16Sale164.122,550418,4970Jul 17 05:02 PM
EXLSKapoor RohitCEO & Vice ChairmanJul 13Sale61.627,206444,034364,877Jul 17 05:00 PM
APRNSinger Benjamin CGeneral Counsel and SecretaryJul 16Sale3.7810,00037,80021,240Jul 17 05:00 PM
PFEREAD IAN CChairman & CEOJul 16Sale37.36486,75318,186,315659,440Jul 17 04:59 PM
JAZZMILLER MICHAEL PATRICKEVP, US CommercialJul 13Sale179.1520035,83025,772Jul 17 04:44 PM
TLYSLEVINE TILLY10% OwnerJul 16Sale15.0610,000150,6320Jul 17 04:42 PM
PDVWRohmann Richard E.EVP and SecretaryJul 13Sale26.3674419,6115,472Jul 17 04:37 PM
VRDriscoll KeanPresidentJul 16Sale67.586,875464,61392,709Jul 17 04:35 PM
NATIKODOSKY JEFFREY LDirectorJul 16Sale43.701,30056,810364,773Jul 17 04:32 PM
NATIKODOSKY JEFFREY LDirectorJul 16Sale43.7030013,110366,945Jul 17 04:32 PM
WMGIFisher PatrickPresident, Lower ExtremitiesJul 16Sale25.441002,54439,093Jul 17 04:30 PM
PRIKelly William A.President of SubsidiaryJul 16Sale104.381,250130,48017,772Jul 17 04:29 PM
ACNShook EllynChief Leadership & HR OfficerJul 16Sale168.024,375735,07631,707Jul 17 04:25 PM
UNFLevenstein Cecelia10% OwnerJul 17Sale186.683,000560,053125,608Jul 17 04:17 PM
UNFLevenstein Cecelia10% OwnerJul 16Sale187.0141777,985128,608Jul 17 04:17 PM
SGMOYi KathySVP & Chief Financial OfficerJul 16Sale14.775,00073,8607,250Jul 17 04:16 PM
MJCOFreitag WilliamFormer EVPJul 13Sale7.342,66419,5430Jul 17 04:16 PM
GDCASEY JOHN PATRICKExecutive Vice PresidentJul 16Sale191.9922,5004,319,68596,055Jul 17 04:12 PM
PDCEREASONER SCOTT JSVP, COOJul 16Sale61.391,00061,39074,720Jul 17 04:11 PM
BAHLaben NancyEVP, CLO and SecretaryJul 16Sale46.3560,0002,781,00032,765Jul 17 04:11 PM
GFNGAGNON NEIL10% OwnerJul 13Sale14.0039,100547,400118,287Jul 17 04:09 PM
PLNTRondeau ChristopherChief Executive OfficerJul 13Sale48.1420,000962,7040Jul 17 04:09 PM
XNCRSTAFFORD JOHN S III10% OwnerJul 17Sale41.2436,5001,505,2605,018,848Jul 17 04:08 PM
XNCRSTAFFORD JOHN S III10% OwnerJul 16Sale40.6726,8881,093,5355,055,348Jul 17 04:08 PM
XNCRSTAFFORD JOHN S III10% OwnerJul 13Sale41.9748,3122,027,6845,082,236Jul 17 04:08 PM
SEDGAdest MeirVP, Core TechnologiesJul 16Sale55.101,30671,961363,456Jul 17 04:05 PM
CIENALEXANDER STEPHEN BSVP, Chief Technology OfficerJul 16Sale26.992,50067,482120,926Jul 17 03:43 PM
CIENRothenstein David MSr. VP, General CounselJul 16Sale26.992,00053,973276,925Jul 17 03:41 PM
FLWSMCCANN CHRISTOPHER GCEO and PresidentJul 16Sale12.8115,000192,150950,626Jul 17 03:41 PM
CIENFRODSHAM JAMESSR. VP, Chief Strategy OfficerJul 16Sale26.992,00053,975161,498Jul 17 03:39 PM
CIENMcFeely ScottSVP, Networking PlatformsJul 16Sale26.981,00026,98062,234Jul 17 03:32 PM
SLABPiovaccari AlessandroSR VP and CTOJul 16Sale104.241,910199,09832,681Jul 17 03:20 PM
WLFCWILLIS CHARLES F IVCEOJul 16Sale31.491,35642,706669,300Jul 17 02:40 PM
WLFCWILLIS CHARLES F IVCEOJul 13Sale31.6160119,000670,656Jul 17 02:40 PM
RMDSandercock BrettChief Financial OfficerJul 16Sale109.012,000218,02065,072Jul 17 02:05 PM
OMCLKuipers Peter J.Executive V P& CFOJul 16Sale53.062,818149,52951,552Jul 17 01:41 PM
OMCLJOHNSTON DAN SEVP & Chief Legal & AdminJul 16Sale53.069,713515,32935,996Jul 17 01:41 PM
OMCLTaborga Jorge R.EVP, Global R & DJul 16Sale52.9911,582613,69844,973Jul 17 01:40 PM
TDGLaubenthal Raymond FDirectorJul 16Sale361.0611,9004,296,62513,212Jul 17 01:27 PM
PLAYManning Margo LynnChief Operating OfficerJul 16Sale48.505,000242,5078,563Jul 17 12:13 PM
KLICSood DeepakVice PresidentJul 13Sale28.0020,000560,00087,235Jul 17 08:58 AM
KLICBACHMAN BRIAN RDirectorJul 13Sale28.002,20061,60017,928Jul 17 08:56 AM
WIFIHagan DavidChief Executive OfficerJul 16Sale22.6619,834449,438626,314Jul 16 08:40 PM
WIFIHagan DavidChief Executive OfficerJul 13Sale23.7419,833470,892646,148Jul 16 08:40 PM
WIFIHagan DavidChief Executive OfficerJul 12Sale23.9119,833474,207665,037Jul 16 08:40 PM
KARPOLAK REBECCA C.CLO & Sec.; Pres. TradeRevJul 16Sale59.8944,2402,649,42746,390Jul 16 08:28 PM
AMGNHarper Sean EEVP, Research & DevelopmentJul 16Sale195.711,525298,45856,082Jul 16 08:20 PM
KARPrice Lisa A.EVP of Human ResourcesJul 16Sale60.018,549513,02712,022Jul 16 08:19 PM
KARPrice Lisa A.EVP of Human ResourcesJul 13Sale60.0020012,00012,022Jul 16 08:19 PM
EBSEl-Hibri FuadChairmanJul 12Sale54.5015,000817,5521,524,993Jul 16 08:18 PM
CYGOPALSWAMY SUDHIREVP, Microcontroller/ConnectJul 16Sale16.503,00049,491118,174Jul 16 08:07 PM
CRMConway CraigDirectorJul 16Sale147.8425036,9609,061Jul 16 07:43 PM
BFAMKramer Stephen HowardCEO & PresidentJul 16Sale108.583,500380,030100,900Jul 16 07:42 PM
CRMBenioff MarcChairman of the Board and CEOJul 16Sale147.525,000737,60632,886,800Jul 16 07:37 PM
CRMBenioff MarcChairman of the Board and CEOJul 13Sale147.175,000735,83532,891,800Jul 16 07:37 PM
TWLOHu GeorgeChief Operating OfficerJul 13Sale60.395,000301,934210,420Jul 16 07:26 PM
TWLOHu GeorgeChief Operating OfficerJul 12Sale60.015,000300,032210,420Jul 16 07:26 PM
FBZuckerberg MarkCOB and CEOJul 13Sale207.30240,00049,752,3090Jul 16 07:13 PM
FBZuckerberg MarkCOB and CEOJul 12Sale205.72240,00049,371,9610Jul 16 07:13 PM
BASPatterson Thomas MonroePresident and CEOJul 16Sale11.221,50016,835144,678Jul 16 06:55 PM
INTXSTANFIELD MICHAEL RChairman and FounderJul 16Sale1.705,0008,500960,862Jul 16 06:52 PM
PFPTSteele GaryChief Executive OfficerJul 12Sale125.0750,0006,253,630218,574Jul 16 06:46 PM
MPWDAWSON G STEVENDirectorJul 12Sale14.415,66281,58977,572Jul 16 06:32 PM
IRBTALI MOHAMADDirectorJul 13Sale80.9454243,86913,032Jul 16 06:28 PM
EWWood Larry LCVP, THV ReplacementJul 16Sale148.026,300932,526115,650Jul 16 06:27 PM
DJCOGUERIN JOHN PATRICK ET ALDirectorJul 16Sale236.001236127,119Jul 16 06:23 PM
DJCOGUERIN JOHN PATRICK ET ALDirectorJul 12Sale236.001236127,120Jul 16 06:23 PM
LITESepe Matthew JosephChief Accounting OfficerJul 16Sale58.381,46685,58517,898Jul 16 06:00 PM
PLNTRondeau ChristopherChief Executive OfficerJul 12Sale46.6520,000933,0180Jul 16 05:43 PM
EPEApollo Management Holdings GP,10% OwnerJul 13Sale2.78282,446785,200110,484,134Jul 16 05:41 PM
EPEApollo Management Holdings GP,10% OwnerJul 12Sale2.86247,041706,537110,766,580Jul 16 05:41 PM
CASayed AymanPres., Chief Products OfficerJul 12Sale43.8913,858608,228105,089Jul 16 05:37 PM
MSBISchultz John MDirectorJul 16Sale34.682,00069,365292,426Jul 16 05:32 PM
VSLRPlagemann Thomas G.CCO; EVP, Capital MarketsJul 16Sale5.487,05038,613203,947Jul 16 05:27 PM
ANYYeh Jenny CSVP & General CounselJul 12Sale0.471,29761013,486Jul 16 05:25 PM
HQYMedici FrankDirectorJul 13Sale80.406,904555,04910,745Jul 16 05:21 PM
GRMNKAO MIN HExecutive ChairmanJul 16Sale63.3350,2173,180,0424,870,577Jul 16 05:17 PM
GRMNKAO MIN HExecutive ChairmanJul 13Sale63.3935,6642,260,8764,920,794Jul 16 05:17 PM
GRMNKAO MIN HExecutive ChairmanJul 12Sale62.82150,0009,422,4494,956,458Jul 16 05:17 PM
HBIOGagnon Robert E.Chief Financial OfficerJul 13Sale5.251,0625,576382,450Jul 16 05:10 PM
HBIOGagnon Robert E.Chief Financial OfficerJul 12Sale5.259,14548,011383,512Jul 16 05:10 PM
MNTAKWON YOUNGSVP, Corporate DevelopmentJul 12Sale25.4446,4991,183,025125,624Jul 16 05:10 PM
YELPStoppelman JeremyChief Executive OfficerJul 12Sale40.0013,000520,0002,401,310Jul 16 05:07 PM
LRNPolsky Howard D.General Counsel & SecretaryJul 13Sale17.7618,838334,563100,842Jul 16 05:05 PM
GFNGAGNON NEIL10% OwnerJul 12Sale14.0583,6331,174,935121,534Jul 16 05:02 PM
EXLSKapoor RohitCEO & Vice ChairmanJul 12Sale61.2926,5351,626,330372,083Jul 16 05:00 PM
APRNCluff JaredChief Marketing OfficerJul 12Sale4.0010,00040,00086,242Jul 16 05:00 PM
USCRSutherland Colin McGillDirectorJul 12Sale51.151306,65012,514Jul 16 04:58 PM
WSTGNYNENS SIMON FResigned CEO as of 5/11/18Jul 16Sale14.251,78925,493264,269Jul 16 04:55 PM
WSTGNYNENS SIMON FResigned CEO as of 5/11/18Jul 13Sale14.253535,030266,058Jul 16 04:55 PM
STERosebrough Walter M JrPresident & CEOJul 13Sale110.5010,0001,105,00028,000Jul 16 04:52 PM
ZRock JenniferInterim CFOJul 12Sale61.941,44489,4450Jul 16 04:52 PM
CTSHMcLoughlin KarenChief Financial OfficerJul 12Sale82.044,983408,80543,887Jul 16 04:43 PM
NEWRSchultz EricaChief Revenue OfficerJul 16Sale106.741,800192,13220,266Jul 16 04:37 PM
VRTXParini MichaelEVP, CL&AOJul 12Sale175.022,125371,91839,609Jul 16 04:37 PM
NEWRSachleben MarkChief Financial OfficerJul 16Sale106.7422,5002,401,65039,500Jul 16 04:36 PM
DALWest W GilbertSr. EVP & COOJul 13Sale50.4715,000757,035104,447Jul 16 04:30 PM
VRTXSilva Paul MSVP & Corp ControllerJul 12Sale175.02860150,51716,087Jul 16 04:19 PM
CVXJOHNSON JAMES WILLIAMExecutive Vice PresidentJul 12Sale124.204,750589,9560Jul 16 04:16 PM
VRSKStephenson Scott GCEO and PresidentJul 16Sale112.7418,1732,048,824656,504Jul 16 04:16 PM
DRISimon William SDirectorJul 13Sale112.092,418271,03810,248Jul 16 04:15 PM
CPRTFRANKLIN WILLIAM EExecutive Vice PresidentJul 12Sale58.9490,0005,305,04117,462Jul 16 04:12 PM
ICFIOstria Sergio JExecutive Vice PresidentJul 13Sale75.001,13284,9007,115Jul 16 04:10 PM
LIIBedard Gary SEVP, President and COO, WWRJul 12Sale215.0024352,24519,698Jul 16 04:01 PM
GIIIVAN BOKHORST WILLEMDirectorJul 13Sale44.049,323410,58545,451Jul 16 03:52 PM
CCFGACK LEWIS PDirectorJul 12Sale119.6020023,9204,490Jul 16 02:28 PM
GOOGDrummond David CSVP, Corporate DevelopmentJul 12Sale1167.385,6906,642,3640Jul 16 02:01 PM
CTXSHENSHALL DAVID JCEO & PRESIDENTJul 12Sale107.2310,0001,072,300333,733Jul 16 01:08 PM
WVVIBERNAU JAMES WChief Executive OfficerJul 13Sale8.30120996432,926Jul 16 11:18 AM
WVVIBERNAU JAMES WChief Executive OfficerJul 12Sale8.303,13826,045433,046Jul 16 11:18 AM
AROWO'Conor Raymond FDirectorJul 16Sale37.5050018,75046,531Jul 16 11:15 AM
SASRMichael Mark CDirectorJul 13Sale42.421,00042,42022,000Jul 16 10:48 AM
TREELEBDA DOUGLAS RChairman & CEOJul 12Sale243.9914,7503,598,914519,604Jul 16 10:19 AM
CHGGROSENSWEIG DANIELPRESIDENT, CEO & CHAIRMANJul 12Sale28.91150,0004,336,5002,333,753Jul 13 09:08 PM
RSGSerianni Charles FEVP Chief Financial OfficerJul 12Sale70.009,500665,00036,643Jul 13 08:46 PM
AXTAMarkevich Steven R.EVP & Pres., Trans. CoatingsJul 12Sale29.8115,332457,047190,529Jul 13 08:07 PM
TWTRWilliams Evan ClarkDirectorJul 12Sale45.01316,47814,244,22911,899Jul 13 08:03 PM
TWTRWilliams Evan ClarkDirectorJul 12Sale45.0024,6431,108,9101,757,933Jul 13 08:03 PM
TWTRWilliams Evan ClarkDirectorJul 11Sale43.67316,47813,819,08512,034Jul 13 08:03 PM
TWTRWilliams Evan ClarkDirectorJul 11Sale43.6624,6431,075,8891,782,576Jul 13 08:03 PM
DISBRAVERMAN ALAN NSr EVP, General Counsel & SecyJul 11Sale107.00140,63815,048,266107,214Jul 13 08:02 PM
OMERKelbon Marcia S.VP Patent and General CounselJul 12Sale21.484,27791,886184,645Jul 13 08:00 PM
XLNXRaje SalilSVP, Software and IP ProductsJul 12Sale67.893,500237,61516,612Jul 13 07:42 PM
KFYBURNISON GARY DCEOJul 13Sale64.836,800440,811179,416Jul 13 07:25 PM
KFYBURNISON GARY DCEOJul 12Sale62.4112,000748,964190,558Jul 13 07:25 PM
KFYBURNISON GARY DCEOJul 11Sale62.678,000501,366202,558Jul 13 07:25 PM
KFYMULROONEY BYRNE KCEO-RPOJul 13Sale65.071,607104,56783,227Jul 13 07:25 PM
KFYROZEK ROBERT PEVP, CFO & CCOJul 13Sale63.161,962123,92393,241Jul 13 07:24 PM
QDELRussell Edward KeithS.V.P., N.A. Commercial OpsJul 12Sale68.0910,000680,9388,887Jul 13 07:22 PM
KKELLOGG W K FOUNDATION TRUST10% OwnerJul 13Sale71.06150,00010,659,12066,081,838Jul 13 07:21 PM
PENWilder ThomasDirectorJul 11Sale138.5030442,1043,324Jul 13 06:59 PM
ELLICorr JonathanPresident & CEOJul 11Sale104.4758961,533108,983Jul 13 06:49 PM
SMTCCHUKWU EMEKAEVP and CFOJul 13Sale50.1313,000651,66390,430Jul 13 06:45 PM
SMTCMAHESWARAN MOHANPresident and CEOJul 13Sale50.122,500125,308144,965Jul 13 06:44 PM
open in screener